Minot, ND

12:08 PM CDT on June 28, 2017 (GMT -0500)
Minot International

Weather History for KMOT - March, 2013

Change the Weather History Date:

Tuesday, March 26, 2013

  Actual Average Record
Temperature  
Mean Temperature 7 °F 33 °F  
Max Temperature 26 °F 43 °F 73 °F (1946)
Min Temperature -12 °F 24 °F -15 °F (1964)
Degree Days  
Heating Degree Days 58 32  
Month to date heating degree days 1348 984  
Since 1 July heating degree days 8078 7560  
Cooling Degree Days 0 0  
Month to date cooling degree days 0 0  
Year to date cooling degree days 0 0  
Moisture  
Dew Point 3 °F    
Average Humidity 82    
Maximum Humidity 95    
Minimum Humidity 68    
Precipitation  
Precipitation 0.00 in 0.03 in 0.69 in (1950)
Month to date precipitation 0.60 0.66  
Year to date precipitation 1.14 1.57  
Sea Level Pressure  
Sea Level Pressure 30.33 in    
Wind  
Wind Speed 5 mph (ESE)    
Max Wind Speed 16 mph    
Max Gust Speed 18 mph    
Visibility 8 miles    
Events      
T = Trace of Precipitation, MM = Missing Value Source: NWS Daily Summary

Daily Weather History Graph

Daily Weather History Graph

Search for Another Location

Airport or City:

Trip Planner

Search our weather history database for the weather conditions in past years. The results will help you decide how hot, cold, wet, or windy it might be!

Date:

Astronomy

Mar. 26, 2013 Rise Set
Actual Time 7:34 AM CDT 8:07 PM CDT
Civil Twilight 7:03 AM CDT 8:38 PM CDT
Nautical Twilight 6:26 AM CDT 9:15 PM CDT
Astronomical Twilight 5:47 AM CDT 9:54 PM CDT
Moon 7:47 PM CDT (3/26) 6:53 AM CDT (3/26)
Length of Visible Light 13h 34m
Length of Day
12h 32m
Waxing Gibbous, 99% of the Moon is Illuminated
Mar 26
Waxing Gibbous
Mar 27
Full
Apr 2
Last Quarter
Apr 10
New
Apr 18
First Quarter

Hourly Weather History & Observations

Time (CDT) Temp. Windchill Dew Point Humidity Pressure Visibility Wind Dir Wind Speed Gust Speed Precip Events Conditions
12:54 AM 1.9 °F - -0.0 °F 91% 30.40 in 9.0 mi Calm Calm - N/A   Clear
1:54 AM -0.0 °F - -2.9 °F 88% 30.38 in 3.0 mi Calm Calm - N/A   Clear
2:54 AM -0.9 °F - -4.0 °F 87% 30.37 in 10.0 mi Calm Calm - N/A   Clear
3:54 AM 1.9 °F -7.6 °F -0.9 °F 88% 30.35 in 3.0 mi SSE 4.6 mph - N/A   Clear
4:54 AM -0.9 °F - -5.1 °F 83% 30.35 in 5.0 mi Calm Calm - N/A   Clear
5:54 AM -7.1 °F - -11.0 °F 83% 30.34 in 6.0 mi Calm Calm - N/A   Clear
6:54 AM -9.0 °F - -14.1 °F 79% 30.35 in 8.0 mi Calm Calm - N/A   Clear
7:54 AM -11.9 °F - -16.1 °F 82% 30.36 in 7.0 mi Calm Calm - N/A   Clear
8:54 AM -6.0 °F - -11.0 °F 79% 30.36 in 7.0 mi Calm Calm - N/A   Clear
9:54 AM -0.9 °F - -4.0 °F 87% 30.35 in 7.0 mi Calm Calm - N/A   Clear
10:54 AM 5.0 °F -5.6 °F 1.0 °F 84% 30.33 in 10.0 mi East 5.8 mph - N/A   Clear
11:54 AM 12.0 °F 2.7 °F 7.0 °F 80% 30.32 in 10.0 mi ESE 5.8 mph - N/A   Clear
12:54 PM 18.0 °F 7.7 °F 12.0 °F 78% 30.30 in 10.0 mi East 8.1 mph - N/A   Clear
1:54 PM 23.0 °F 13.1 °F 16.0 °F 74% 30.30 in 10.0 mi ESE 9.2 mph - N/A   Clear
2:54 PM 25.0 °F 15.5 °F 18.0 °F 75% 30.30 in 10.0 mi ESE 9.2 mph - N/A   Clear
3:54 PM 26.1 °F 15.0 °F 17.1 °F 69% 30.27 in 10.0 mi SE 12.7 mph - N/A   Clear
4:54 PM 24.1 °F 12.0 °F 17.1 °F 75% 30.27 in 10.0 mi ESE 13.8 mph - N/A   Clear
5:54 PM 21.9 °F 10.4 °F 17.1 °F 82% 30.28 in 10.0 mi ESE 11.5 mph - N/A   Clear
6:54 PM 19.9 °F 8.6 °F 15.1 °F 81% 30.29 in 10.0 mi East 10.4 mph - N/A   Clear
7:54 PM 15.1 °F 3.3 °F 10.9 °F 84% 30.31 in 10.0 mi East 9.2 mph - N/A   Clear
8:54 PM 9.0 °F -0.9 °F 5.0 °F 84% 30.31 in 10.0 mi East 5.8 mph - N/A   Clear
9:54 PM 6.1 °F -2.8 °F 3.9 °F 91% 30.31 in 10.0 mi East 4.6 mph - N/A   Clear
10:54 PM 5.0 °F -4.1 °F 1.9 °F 87% 30.31 in 8.0 mi East 4.6 mph - N/A   Clear
11:54 PM 1.9 °F -5.6 °F -0.9 °F 88% 30.30 in 8.0 mi ENE 3.5 mph - N/A   Clear